Location: Valdosta
(30.8330°N, 83.2790°W)
Time: 18:49:17
(UTC-04:00)

Daily predictions for brighter satellites

Satellite Brightness Start Highest point End
(mag) Time Altitude Azimuth Time Altitude Azimuth Time Altitude Azimuth
Cosmos 1933 4.0 20:53:18 10° NNE 20:57:02 36° E 21:00:43 10° SSE
COSMOS 2487 2.8 20:54:19 10° N 20:57:46 48° ENE 21:01:11 10° SSE
Cosmos 1937 Rocket 3.4 20:53:22 10° S 20:58:28 72° ESE 21:03:35 10° NNE
H-2A ROCKET BODY 0.7 20:57:45 10° WSW 20:59:42 56° S 21:03:56 10° E
GPS 2-04 Rocket1 3.7 20:58:40 10° W 21:02:18 41° N 21:05:47 10° ENE
Meteor 2-10 Rocket 4.0 20:57:03 10° N 21:02:47 55° E 21:08:24 10° SSE
HJ-1C 4.5 21:02:07 10° S 21:05:26 48° W 21:08:47 10° NNW
Resurs 1-3 3.6 21:04:56 10° SSE 21:09:15 66° ENE 21:13:37 10° N
Cosmos 2150 Rocket 4.1 21:05:35 10° SSW 21:10:59 89° WNW 21:16:20 10° NNE
Cosmos 1470 Rocket 3.7 21:06:55 10° S 21:11:23 82° W 21:15:53 10° N
Cosmos 2298 Rocket 4.3 21:06:23 10° SSW 21:11:40 76° WNW 21:16:58 10° NNE
Hubble Space Telescope 2.0 21:09:10 10° W 21:12:46 29° SSW 21:16:13 11° SE
Meteor 2-3 Rocket 3.9 21:10:41 10° S 21:16:14 54° E 21:21:46 10° NNE
Meteor 1-29 4.4 21:14:02 10° NE 21:16:40 20° E 21:18:51 12° SE
Milstar 3 4.0 21:06:03 10° WSW 21:21:01 55° SSE 21:29:09 10° E
Cosmos 2082 Rocket 2.9 21:17:42 10° NNW 21:23:13 55° WSW 21:28:44 10° S
Meteor 1-26 Rocket 4.5 21:18:42 10° N 21:24:14 53° E 21:29:52 10° SSE
Star 37E S/N 40062 3.0 21:24:00 10° W 21:25:55 57° S 21:28:22 16° ESE
Cosmos 2344 4.1 21:21:01 10° S 21:27:48 33° ESE 21:34:34 10° NE
Cosmos 1825 3.9 21:28:21 15° E 21:28:51 16° E 21:31:09 10° NE
Cosmos 1869 Rocket 4.3 21:26:33 11° SSE 21:30:15 32° E 21:34:08 10° NNE
Spot 2 Rocket 3.7 21:26:13 10° S 21:31:18 75° WSW 21:36:25 10° NNW
Cosmos 1833 Rocket 3.6 21:26:49 10° NNW 21:32:11 47° WSW 21:37:32 10° S
Tsikada Rocket 4.5 21:32:33 10° SSW 21:38:44 64° W 21:44:53 10° N
Helios 1B rocket 2.4 21:36:04 10° NNE 21:40:09 63° ESE 21:44:12 10° S
OAO 3 Copernicus 4.2 21:39:25 10° WSW 21:44:26 87° SSE 21:49:30 10° ENE
Cosmos 1892 3.4 21:41:59 10° SSW 21:45:46 56° W 21:49:32 10° N
GPS 2-17 Rocket1 4.5 21:42:35 10° SW 21:45:51 20° S 21:46:59 18° SSE
USA 186 3.3 21:45:14 10° SSW 21:47:27 27° W 21:49:51 10° NW
Cosmos 1943 Rocket 2.3 21:44:16 10° S 21:49:39 51° ESE 21:55:02 10° NNE
ISS -0.7 21:47:23 10° W 21:49:43 18° NW 21:52:03 10° N
Cosmos 2221 Rocket 4.4 21:47:32 10° NNE 21:51:34 33° E 21:52:52 28° ESE
Delta 2 Rocket 4.4 21:47:27 10° W 21:53:46 56° S 21:58:16 24° ESE
Envisat 3.5 21:53:19 10° S 21:58:18 58° W 22:03:19 10° NNW
Spot 1 4.3 21:56:21 25° SSE 21:59:03 69° ENE 22:03:58 10° N
Cosmos 2263 4.2 21:53:18 10° SSW 21:59:03 83° ESE 22:04:50 10° NNE
CENTAUR R/B 2.4 21:56:10 10° SSW 22:01:57 89° WNW 22:08:29 10° NNE
Cosmos 1634 Rocket 4.0 21:55:49 10° N 22:02:07 73° E 22:06:36 20° SSE
Tiangong 2 2.4 21:59:44 10° NW 22:02:40 32° NNE 22:03:23 28° NE
Cosmos 372 Rocket 3.9 21:57:42 10° S 22:02:44 59° ESE 22:07:45 10° NNE
Cosmos 1900 4.4 21:58:02 10° NNW 22:03:11 70° ENE 22:05:27 33° SE
CZ-3A R/B 2.4 22:02:03 10° WSW 22:04:45 20° SSW 22:04:45 20° SSW
COSMOS 2455 4.0 22:01:49 10° SW 22:07:33 46° WNW 22:13:19 10° NNE
Helios 1A 3.0 22:05:40 26° S 22:07:57 76° WSW 22:12:09 10° NNW
SPOT 5 4.1 22:08:10 26° E 22:09:17 28° ENE 22:13:47 10° NNE
Cosmos 1340 4.3 22:06:30 10° NNE 22:08:45 21° ENE 22:08:45 21° ENE
CZ-4B DEB 2.4 22:09:44 85° ENE 22:09:44 85° ENE 22:12:39 10° N
Cosmos 2369 Rocket 3.0 22:05:47 10° SW 22:11:15 52° WNW 22:16:47 10° N
Cosmos 1125 Rocket 3.5 22:07:58 10° SSW 22:13:14 87° WNW 22:18:29 10° NNE
Resurs 01 Rocket 4.2 22:12:08 10° SW 22:15:01 17° W 22:17:56 10° NW
OAO 2 Rocket 3.7 22:12:22 10° W 22:17:13 48° SSW 22:18:25 39° SSE
SAR-Lupe-4 3.4 22:17:05 69° SSE 22:17:28 85° ENE 22:21:04 10° N
Delta 168 3.6 22:15:32 10° WSW 22:19:00 38° S 22:19:00 38° S
Lacrosse 5 rocket 4.1 22:19:41 10° W 22:22:06 17° NW 22:24:33 10° N
Cosmos 1606 2.9 22:20:23 10° N 22:23:46 55° ENE 22:23:46 55° ENE
Delta 7925 Rocket 3.8 22:20:31 10° WSW 22:25:10 43° SSE 22:25:14 43° SSE
YAOGAN 6 3.7 22:23:54 29° SSW 22:25:16 42° W 22:28:48 10° NNW
Shenzhou-11 Module 2.9 22:23:13 10° NW 22:25:36 49° NNW 22:25:36 49° NNW
Cosmos 1346 Rocket 4.5 22:23:30 10° NNW 22:27:01 30° W 22:29:26 17° SW
TRAILBLAZER 4.4 22:32:11 36° SSW 22:34:01 88° SE 22:38:34 10° NNE
Cosmos 2279 Rocket 3.9 22:29:39 10° N 22:35:55 80° E 22:38:02 44° SSE
MetOp-B 4.0 22:35:41 54° SSE 22:36:55 79° ENE 22:42:16 10° N
ATLAS 5 CENTAUR R/B 3.1 22:34:02 10° NNW 22:39:49 41° ENE 22:41:08 37° E
Okean 1-7 3.5 22:37:36 10° NNW 22:41:55 56° W 22:42:45 47° SW
H-2A R/B 2.5 22:42:10 46° E 22:42:21 46° ENE 22:47:27 10° N
GPS 2-04 Rocket1 3.5 22:38:52 10° WNW 22:42:02 41° N 22:42:02 41° N
Meteor 1-27 Rocket 3.8 22:37:20 10° N 22:42:56 55° E 22:43:18 54° E
Meteor 1-10 Rocket 4.3 22:37:38 10° N 22:43:35 81° W 22:45:26 46° S
Cosmos 1656 Rocket 3.4 22:47:59 71° SE 22:48:17 73° ESE 22:53:45 10° NNE
ARGOS 3.0 22:47:36 67° SSE 22:48:20 83° ENE 22:53:42 10° N
Meteor 2-6 Rocket 4.4 22:46:28 10° NNW 22:52:25 74° W 22:54:03 49° SSW
Cosmos 158 Rocket 3.7 22:47:58 10° NNW 22:52:45 84° NNE 22:52:45 84° NNE
Cosmos 2180 Rocket 4.4 22:46:51 10° N 22:53:16 90° SE 22:54:48 55° S
Cosmos 1733 Rocket 3.6 23:01:47 53° NNW 23:01:47 53° NNW 23:05:12 10° N
Cosmos 1825 4.4 23:03:11 19° WSW 23:04:11 21° WNW 23:07:09 10° NNW
ERS-1 Rocket 4.0 23:03:32 35° SW 23:04:34 40° W 23:09:18 10° NNW
Cosmos 1782 4.4 23:01:24 10° NNW 23:04:51 31° W 23:04:51 31° W
SL-08 RB Rocket 4.0 23:07:02 65° NW 23:07:02 65° NW 23:11:09 10° NNW
Meteor 2-20 4.3 23:20:24 85° WSW 23:20:28 85° W 23:26:36 10° N
Mugunghwa Rocket 4.4 23:13:27 10° WSW 23:20:35 62° S 23:20:35 62° S
USA 215 3.1 23:22:28 76° E 23:22:56 80° NE 23:29:31 10° NW
Lacrosse 4 Rocket 2.9 23:23:04 10° NNW 23:25:48 36° NNW 23:25:48 36° NNW
Terra 3.1 23:33:09 35° N 23:33:09 35° N 23:35:57 10° N
Cosmos 2219 4.4 23:26:19 10° N 23:30:23 33° NE 23:30:23 33° NE
BREEZE-M DEB (TANK) 4.3 23:36:03 37° NE 23:36:03 37° NE 23:42:17 10° NE
